Location: Unspecified
(53.4056°N, 0.0000°E)
Time: 17:49:23
(UTC+00:00)

Oscar 11 - Visible Passes

Search period start: 04 April 2026 00:00
Search period end: 14 April 2026 00:00
Orbit: 590 x 603 km, 97.8° (Epoch: 29 March)

Date Brightness Start Highest point End Pass type
(mag) Time Alt. Az. Time Alt. Az. Time Alt. Az.
4 Apr 8.0 03:17:16 10° NNE 03:21:19 44° E 03:25:08 11° S visible
5 Apr 7.6 03:27:05 10° NNE 03:31:13 54° E 03:35:15 11° S visible
6 Apr 7.3 03:36:55 10° NNE 03:41:07 68° ESE 03:45:18 10° S visible
7 Apr 9.8 02:13:09 10° ENE 02:14:40 12° E 02:16:11 10° ESE visible
7 Apr 7.0 03:46:46 10° NNE 03:50:59 84° ESE 03:55:12 10° SSW visible
8 Apr 9.7 02:22:20 10° NE 02:24:40 14° E 02:26:59 10° ESE visible
8 Apr 6.9 03:56:39 10° NNE 04:00:52 80° WNW 04:05:03 10° SSW visible
9 Apr 9.5 02:31:47 10° NE 02:34:38 17° E 02:37:28 10° SE visible
9 Apr 7.0 04:06:32 10° N 04:10:43 65° WNW 04:14:51 10° SSW visible
10 Apr 9.3 02:41:21 10° NE 02:44:36 21° E 02:47:50 10° SE visible
10 Apr 7.2 04:16:26 10° N 04:20:32 53° WNW 04:24:38 10° SW visible
11 Apr 9.0 02:51:00 10° NE 02:54:32 26° E 02:58:04 10° SSE visible
11 Apr 7.5 04:26:21 10° N 04:30:21 43° WNW 04:34:20 10° SW visible
12 Apr 8.7 03:00:41 10° NNE 03:04:28 31° E 03:08:13 10° SSE visible
13 Apr 8.3 03:10:25 10° NNE 03:14:22 38° E 03:18:19 10° SSE visible
